Linden, NJ

9:55 AM EST on December 15, 2017 (GMT -0500)
Linden

Weather History for KLDJ - January, 2014

Change the Weather History Date:

Sunday, January 12, 2014

  Actual Average (KEWR) Record (KEWR)
Temperature  
Mean Temperature 46 °F -  
Max Temperature 51 °F 36 °F 67 °F (2017)
Min Temperature 37 °F 22 °F -1 °F (1981)
Degree Days  
Heating Degree Days 19    
Moisture  
Dew Point 32 °F    
Average Humidity 62    
Maximum Humidity 89    
Minimum Humidity 51    
Precipitation  
Precipitation 0.01 in - - ()
Sea Level Pressure  
Sea Level Pressure 29.80 in    
Wind  
Wind Speed 12 mph (WNW)    
Max Wind Speed 20 mph    
Max Gust Speed 31 mph    
Visibility 10 miles    
Events Rain    
Averages and records for this station are not official NWS values.
T = Trace of Precipitation, MM = Missing Value Source: NWS Daily Summary

Daily Weather History Graph

Daily Weather History Graph

Search for Another Location

Airport or City:

Trip Planner

Search our weather history database for the weather conditions in past years. The results will help you decide how hot, cold, wet, or windy it might be!

Date:

Astronomy

Jan. 12, 2014 Rise Set
Actual Time 7:19 AM EST 4:51 PM EST
Civil Twilight 6:49 AM EST 5:21 PM EST
Nautical Twilight 6:15 AM EST 5:55 PM EST
Astronomical Twilight 5:42 AM EST 6:28 PM EST
Moon 2:17 PM EST (1/12) 4:16 AM EST (1/12)
Length of Visible Light 10h 32m
Length of Day
9h 31m
Waxing Gibbous, 89% of the Moon is Illuminated
Jan 12
Waxing Gibbous
Jan 15
Full
Jan 24
Last Quarter
Jan 30
New
Feb 6
First Quarter

Hourly Weather History & Observations

Time (EST) Temp. Windchill Dew Point Humidity Pressure Visibility Wind Dir Wind Speed Gust Speed Precip Events Conditions
12:15 AM 55.4 °F - 52.3 °F 89% 29.43 in 10.0 mi West 8.1 mph - N/A   Overcast
12:35 AM 52.2 °F - 47.1 °F 83% 29.45 in 5.0 mi WNW 18.4 mph 28.8 mph 0.01 in Rain Light Rain
12:55 AM 51.1 °F - 46.4 °F 84% 29.46 in 7.0 mi WNW 10.4 mph 18.4 mph 0.01 in   Light Drizzle
1:15 AM 51.3 °F - 45.0 °F 79% 29.46 in 10.0 mi WNW 9.2 mph - N/A   Overcast
1:35 AM 50.9 °F - 43.2 °F 75% 29.47 in 10.0 mi WNW 13.8 mph 18.4 mph N/A   Overcast
1:55 AM 50.0 °F - 41.9 °F 74% 29.48 in 10.0 mi WNW 11.5 mph 19.6 mph N/A   Mostly Cloudy
2:15 AM 50.0 °F - 41.0 °F 71% 29.50 in 10.0 mi West 15.0 mph - N/A   Mostly Cloudy
2:35 AM 49.8 °F - 40.6 °F 71% 29.51 in 10.0 mi WNW 13.8 mph 17.3 mph N/A   Overcast
2:55 AM 49.1 °F - 39.4 °F 69% 29.51 in 10.0 mi WNW 10.4 mph 18.4 mph N/A   Mostly Cloudy
3:15 AM 48.4 °F - 38.5 °F 69% 29.52 in 10.0 mi WNW 15.0 mph - N/A   Scattered Clouds
3:35 AM 47.3 °F - 36.7 °F 67% 29.53 in 10.0 mi WNW 16.1 mph 23.0 mph N/A   Scattered Clouds
3:55 AM 46.9 °F - 35.6 °F 65% 29.53 in 10.0 mi WNW 18.4 mph 21.9 mph N/A   Mostly Cloudy
4:15 AM 46.4 °F 40.7 °F 34.3 °F 63% 29.55 in 10.0 mi WNW 12.7 mph 20.7 mph N/A   Scattered Clouds
4:35 AM 45.9 °F 40.0 °F 34.0 °F 63% 29.55 in 10.0 mi West 12.7 mph 18.4 mph N/A   Scattered Clouds
4:55 AM 45.9 °F 39.7 °F 34.2 °F 64% 29.56 in 10.0 mi WNW 13.8 mph 19.6 mph N/A   Mostly Cloudy
5:15 AM 45.0 °F 38.9 °F 33.8 °F 65% 29.56 in 10.0 mi WNW 12.7 mph 19.6 mph N/A   Scattered Clouds
5:35 AM 44.6 °F 38.1 °F 33.8 °F 66% 29.56 in 10.0 mi NW 13.8 mph - N/A   Mostly Cloudy
5:55 AM 44.2 °F 38.4 °F 33.3 °F 65% 29.58 in 10.0 mi WNW 11.5 mph - N/A   Mostly Cloudy
6:15 AM 43.2 °F 38.4 °F 32.9 °F 67% 29.59 in 10.0 mi WNW 8.1 mph - N/A   Scattered Clouds
6:35 AM 43.7 °F 38.1 °F 33.3 °F 67% 29.62 in 10.0 mi WNW 10.4 mph - N/A   Mostly Cloudy
6:55 AM 43.9 °F 38.3 °F 33.4 °F 67% 29.63 in 10.0 mi WNW 10.4 mph 16.1 mph N/A   Overcast
7:15 AM 42.8 °F 35.8 °F 32.9 °F 68% 29.64 in 10.0 mi WNW 13.8 mph - N/A   Mostly Cloudy
7:35 AM 42.6 °F 36.8 °F 32.0 °F 66% 29.66 in 10.0 mi WNW 10.4 mph 17.3 mph N/A   Mostly Cloudy
7:55 AM 42.8 °F 35.8 °F 32.0 °F 66% 29.68 in 10.0 mi WNW 13.8 mph - N/A   Mostly Cloudy
8:15 AM 43.3 °F 37.7 °F 31.8 °F 64% 29.70 in 10.0 mi West 10.4 mph - N/A   Overcast
8:35 AM 43.2 °F 37.9 °F 31.8 °F 64% 29.73 in 10.0 mi West 9.2 mph - N/A   Overcast
8:55 AM 43.7 °F 39.1 °F 31.8 °F 63% 29.74 in 10.0 mi West 8.1 mph - N/A   Overcast
9:15 AM 43.7 °F 36.9 °F 31.3 °F 62% 29.76 in 10.0 mi WNW 13.8 mph 18.4 mph N/A   Overcast
9:35 AM 43.9 °F 37.9 °F 31.5 °F 62% 29.77 in 10.0 mi West 11.5 mph - N/A   Overcast
9:55 AM 44.4 °F 37.2 °F 31.3 °F 60% 29.78 in 10.0 mi WNW 16.1 mph 19.6 mph N/A   Overcast
10:15 AM 44.6 °F 37.8 °F 31.1 °F 59% 29.80 in 10.0 mi WNW 15.0 mph - N/A   Overcast
10:35 AM 46.0 °F 39.6 °F 31.6 °F 57% 29.80 in 10.0 mi WNW 15.0 mph - N/A   Overcast
10:55 AM 46.0 °F 39.0 °F 30.9 °F 56% 29.81 in 10.0 mi NW 17.3 mph 24.2 mph N/A   Overcast
11:15 AM 45.5 °F 38.3 °F 30.4 °F 56% 29.82 in 10.0 mi WNW 17.3 mph 23.0 mph N/A   Overcast
11:35 AM 45.5 °F 38.9 °F 30.4 °F 56% 29.82 in 10.0 mi WNW 15.0 mph 31.1 mph N/A   Overcast
11:55 AM 45.5 °F 37.8 °F 29.7 °F 54% 29.81 in 10.0 mi NW 19.6 mph 26.5 mph N/A   Overcast
12:15 PM 46.0 °F 39.9 °F 31.5 °F 57% 29.82 in 10.0 mi WNW 13.8 mph - N/A   Overcast
12:35 PM 45.1 °F 38.4 °F 30.2 °F 56% 29.83 in 10.0 mi West 15.0 mph 25.3 mph N/A   Overcast
12:55 PM 45.1 °F 37.9 °F 30.2 °F 56% 29.83 in 10.0 mi WNW 17.3 mph 23.0 mph N/A   Overcast
1:15 PM 45.3 °F 38.1 °F 30.4 °F 56% 29.84 in 10.0 mi WNW 17.3 mph 26.5 mph N/A   Overcast
1:35 PM 46.0 °F 39.6 °F 30.4 °F 54% 29.84 in 10.0 mi NW 15.0 mph 24.2 mph N/A   Overcast
1:55 PM 46.6 °F - 30.2 °F 53% 29.84 in 10.0 mi WNW 15.0 mph 19.6 mph N/A   Mostly Cloudy
2:15 PM 45.5 °F 37.8 °F 29.5 °F 54% 29.86 in 10.0 mi WNW 19.6 mph 23.0 mph N/A   Mostly Cloudy
2:35 PM 45.5 °F 39.2 °F 29.5 °F 54% 29.86 in 10.0 mi WNW 13.8 mph 20.7 mph N/A   Overcast
2:55 PM 45.5 °F 38.3 °F 29.1 °F 53% 29.88 in 10.0 mi WNW 17.3 mph 23.0 mph N/A   Overcast
3:15 PM 46.0 °F 39.6 °F 29.5 °F 52% 29.90 in 10.0 mi WNW 15.0 mph - N/A   Overcast
3:35 PM 45.5 °F 38.1 °F 28.4 °F 51% 29.92 in 10.0 mi WNW 18.4 mph 24.2 mph N/A   Scattered Clouds
3:55 PM 45.0 °F 37.6 °F 28.2 °F 52% 29.93 in 10.0 mi WNW 17.3 mph 26.5 mph N/A   Mostly Cloudy
4:15 PM 45.0 °F 37.1 °F 27.9 °F 51% 29.95 in 10.0 mi WNW 19.6 mph 25.3 mph N/A   Mostly Cloudy
4:35 PM 44.4 °F 37.2 °F 27.9 °F 52% 29.96 in 10.0 mi WNW 16.1 mph - N/A   Mostly Cloudy
4:55 PM 43.5 °F 37.5 °F 27.7 °F 54% 29.96 in 10.0 mi West 11.5 mph 16.1 mph N/A   Scattered Clouds
5:15 PM 43.2 °F 37.0 °F 27.5 °F 54% 29.97 in 10.0 mi WNW 11.5 mph - N/A   Clear
5:35 PM 42.4 °F 36.5 °F 27.7 °F 56% 29.99 in 10.0 mi WNW 10.4 mph - N/A   Clear
5:55 PM 42.3 °F 36.3 °F 27.9 °F 57% 30.01 in 10.0 mi West 10.4 mph - N/A   Clear
6:15 PM 42.1 °F 37.1 °F 28.4 °F 58% 30.01 in 10.0 mi West 8.1 mph - N/A   Clear
6:35 PM 41.9 °F 35.9 °F 28.4 °F 59% 30.03 in 10.0 mi West 10.4 mph - N/A   Clear
6:55 PM 41.5 °F 35.4 °F 28.6 °F 60% 30.04 in 10.0 mi West 10.4 mph - N/A   Clear
7:15 PM 41.5 °F 35.0 °F 28.2 °F 59% 30.04 in 10.0 mi West 11.5 mph - N/A   Clear
7:35 PM 41.4 °F 34.7 °F 27.5 °F 58% 30.04 in 10.0 mi West 11.5 mph 16.1 mph N/A   Clear
7:55 PM 40.5 °F 34.6 °F 27.5 °F 60% 30.04 in 10.0 mi WNW 9.2 mph - N/A   Clear
8:15 PM 40.3 °F 33.4 °F 27.5 °F 60% 30.04 in 10.0 mi WNW 11.5 mph - N/A   Clear
8:35 PM 40.3 °F 32.6 °F 27.5 °F 60% 30.05 in 10.0 mi WNW 13.8 mph - N/A   Clear
8:55 PM 40.5 °F 33.6 °F 27.5 °F 60% 30.07 in 10.0 mi West 11.5 mph 17.3 mph N/A   Unknown
9:15 PM 40.6 °F 35.4 °F 27.5 °F 59% 30.07 in 10.0 mi West 8.1 mph - N/A   Clear
9:35 PM 40.1 °F 34.7 °F 27.5 °F 61% 30.07 in 10.0 mi West 8.1 mph - N/A   Clear
9:55 PM 39.4 °F 32.7 °F 27.9 °F 63% 30.09 in 10.0 mi West 10.4 mph - N/A   Clear
10:15 PM 39.4 °F 33.2 °F 27.7 °F 63% 30.09 in 10.0 mi West 9.2 mph - N/A   Clear
10:35 PM 39.0 °F 33.4 °F 27.5 °F 63% 30.09 in 10.0 mi West 8.1 mph - N/A   Clear
10:55 PM 39.2 °F 35.0 °F 27.5 °F 63% 30.09 in 10.0 mi West 5.8 mph - N/A   Clear
11:15 PM 38.3 °F 33.9 °F 27.5 °F 65% 30.09 in 10.0 mi West 5.8 mph - N/A   Clear
11:35 PM 37.4 °F - 27.3 °F 67% 30.10 in 10.0 mi Calm Calm - N/A   Clear
11:55 PM 37.8 °F 34.2 °F 27.9 °F 67% 30.11 in 10.0 mi West 4.6 mph - N/A   Clear